Details From MNMG - Managua Intl
To MGGT - La Aurora
Flight Number -
Tags Generated
Created
Modified
Stats Distance 293 nm / 543 km
Max Altitude 0 ft / 0 m
Waypoints 4
Social Downloads 0
Likes 0
Share VATSIM

Download

Looking for another format? Having issues loading an existing format? Contact us
Advertisement - Login to hide

Notes

Generated

Route

MNMG LEMPA ROSAM MGGT

ID Type Via Altitude Latitude Longitude Leg Dist Tot Dist Heading (true) Name
O MNMG APT - 0 ft / 0 m 12.14274˚ -86.17933˚ - 0 nm - -
LEMPA FIX - 0 ft / 0 m 13.55167˚ -88.70667˚ 170 nm 170 nm 300° / 299° -
ROSAM FIX - 0 ft / 0 m 14.35667˚ -90.16667˚ 97 nm 268 nm 300° / 299° -
O MGGT APT - 0 ft / 0 m 14.57040˚ -90.53161˚ 24 nm 293 nm 301° / 301° -

Altitude Profile

Advertisement - Login to hide

Weather

Temperature
Clouds and Precipitation
Forecast for 2017-04-28 00:00 UTC. Updated an hour ago
Winds

MNMG

Details ICAO MNMG (MGA)
Name Managua Intl
Region Nicaragua
Timezone America/Managua (UTC-6.0)
Stats Elevation 194 ft / 59 m (AMSL)
Location 12.141493° -86.168178°
Runways 1
Magnetic Variation 0.855° W

METAR

MNMG 272000Z 12010KT 9000 FEW020CB SCT300 34/23 Q1006 A2972 CB N S SW W TCU NE FU NOSIG

Decode

TAF

TAF MNMG 271100Z 2712/2812 19004KT 7000 FU FEW020 SCT300 BECMG 2715/2719 11010KT 9999 FEW022 SCT300 TEMPO 2720/2803 14008KT 7000 DZ/RA SCT023 SCT300

Decode

Departure Runways

ID Width Length Bearing (true) Bearing (mag) Surface Threshold Offset Overrun Length
09 148 ft / 45 m 8,008 ft / 2,441 m 96.54° 97.40° Asphalt 0 ft / 0 m 100 ft / 30 m
27 148 ft / 45 m 8,008 ft / 2,441 m 276.55° 277.41° Asphalt 0 ft / 0 m 100 ft / 30 m

MGGT

Details ICAO MGGT (GUA)
Name La Aurora
Region Guatemala
Timezone America/Guatemala (UTC-6.0)
Stats Elevation 4,952 ft / 1,509 m (AMSL)
Location 14.583272° -90.527473°
Runways 1
Magnetic Variation 1.157° E

METAR

MGGT 272000Z 21012KT 8000 FEW020TCU BKN200 28/17 Q1020 A3012 HZ TCU ENE

Decode

TAF

TAF TAF MGGT 271700Z 2718/2818 18010KT 8000 FEW018 TX29/2720Z TN17/2812Z TEMPO 2722/2803 VCTSRA SCT020TCU FEW025CB BECMG 2801/2803 SCT016 TEMPO 2710/2715 VRB03KT 4000 BR BKN012 BECMG 2815/2817 FEW018

Decode

Destination Runways

ID Width Length Bearing (true) Bearing (mag) Surface Threshold Offset Overrun Length
01 196 ft / 60 m 9,841 ft / 3,000 m 17.29° 16.13° Asphalt 0 ft / 0 m 0 ft / 0 m
19 196 ft / 60 m 9,841 ft / 3,000 m 197.29° 196.13° Asphalt 722 ft / 220 m 0 ft / 0 m

Approach Navaids

Runway Type Ident Frequency Range Bearing (true) Bearing (mag) Slope Elevation
01 Localiser IAAI 110.10 MHz 18 nm / 33 km 17.36° 16.20° - 4,952 ft / 1,509 m (AMSL)
01 Glidescope IAAI 110.10 MHz 10 nm / 19 km 17.29° 16.13° 3.00° 4,952 ft / 1,509 m (AMSL)
01 DME IAAI 110.10 MHz 18 nm / 33 km - - - 4,952 ft / 1,509 m (AMSL)

Popular Alternatives